Wind_Speed
9 9 10 11 11 11 11 11 13 14 13 12 11 10 10 9 9 9 9 10 10 11 12 12 13 14 15 16 16 17 18 19 19 20 21 21 22 22 22 22 21 21 21
7 5 5 6 6 7 8 9 11 12 12 12 11 10 10 10 10 10 10 11 12 12 13 13 14 15 16 16 17 18 19 20 21 22 23 23 24 24 25 25 24 24 23
2 2 2 2 3 4 5 7 9 10 11 11 11 11 11 12 12 12 12 13 13 14 14 14 15 15 16 17 18 18 20 21 22 24 25 25 26 26 27 27 26 26 26
2 2 2 2 2 2 3 5 7 9 10 11 11 11 12 12 13 13 14 14 15 15 16 16 16 16 17 18 19 20 21 22 23 24 25 27 28 28 29 29 29 29 29
4 3 3 3 2 1 2 3 5 6 7 8 9 9 10 10 11 11 12 13 14 15 15 16 17 18 19 20 21 22 23 24 25 26 27 28 29 30 30 31 31 32 33
5 4 4 4 4 3 4 4 4 4 5 6 6 7 7 8 9 10 11 12 13 14 15 16 16 18 19 20 21 23 24 25 26 28 29 30 31 31 31 31 31 32 32
5 5 6 7 6 5 4 5 5 5 5 6 7 7 8 9 10 11 12 13 14 15 16 17 17 18 19 20 21 22 23 24 26 27 28 30 31 31 31 31 31 30 30
5 6 7 8 7 6 5 6 6 6 7 8 8 9 10 11 12 12 13 14 15 16 17 18 19 19 20 21 23 23 24 26 28 28 29 30 30 30 30 30 30 30 30
6 6 7 7 7 7 7 7 8 9 9 10 11 12 13 14 14 14 15 15 16 17 18 19 20 21 22 23 25 26 28 29 31 31 32 31 31 31 31 31 31 31 31
6 6 6 6 6 7 8 9 10 11 12 13 14 14 15 15 15 16 16 16 16 17 18 19 21 22 23 25 27 28 30 31 33 34 34 34 34 34 33 33 33 33 33
7 7 7 7 7 7 8 10 11 12 14 14 15 15 15 16 16 16 16 16 17 18 19 21 23 24 25 26 27 29 30 32 34 36 36 36 36 36 36 36 36 36 36
8 8 8 8 8 9 10 11 12 13 14 15 16 16 16 16 15 15 15 16 17 19 21 22 23 24 25 25 26 28 30 31 33 34 35 35 36 37 37 37 38 38 39
10 9 9 9 9 10 11 12 12 13 14 15 16 16 16 17 16 16 17 18 19 20 21 22 23 23 24 24 25 27 28 30 32 34 34 35 36 37 38 39 40 40 41
11 10 10 9 9 10 10 11 12 12 13 14 15 15 16 16 16 17 17 18 19 20 21 22 23 24 25 27 28 29 30 32 33 35 36 37 38 39 40 41 43 43 44
13 12 10 9 9 9 10 10 10 11 11 11 12 12 13 13 14 15 16 18 20 21 23 25 27 28 30 31 33 34 35 36 37 39 41 41 42 44 45 46 46 47 48
15 13 11 10 9 9 9 9 9 10 10 10 11 11 12 12 14 15 17 18 20 22 24 27 29 31 33 35 36 37 39 41 42 43 46 47 47 49 50 50 50 51 51
16 14 12 11 9 9 9 9 10 10 11 12 13 13 13 14 15 16 17 19 21 23 25 28 30 33 35 37 39 41 43 45 47 48 50 52 54 54 54 55 55 55 55
16 15 14 13 11 11 11 11 12 13 14 15 15 15 16 16 17 18 20 21 23 25 28 30 33 36 38 40 42 44 47 48 51 52 55 57 59 60 59 59 58 59 59
18 17 17 17 15 14 14 15 16 16 17 18 19 19 19 20 21 23 24 26 28 30 32 35 37 40 42 43 46 48 50 52 54 56 58 61 63 63 63 63 61 61 61
21 21 21 21 20 18 18 18 19 20 21 22 23 23 24 25 26 27 29 31 33 35 37 40 42 44 46 47 49 52 54 55 58 60 62 64 66 66 65 65 64 63 62
26 26 27 26 25 23 21 21 23 23 24 25 27 28 28 30 31 32 34 36 38 40 43 45 47 49 50 51 53 55 57 60 62 63 65 66 66 66 65 64 61 59 58
31 32 32 33 30 27 25 25 26 27 28 30 32 33 34 35 36 37 38 40 42 45 47 49 51 53 55 56 56 58 60 62 65 65 64 62 60 59 57 54 52 51 50
36 35 36 37 35 33 31 30 30 31 32 35 38 39 41 42 43 44 45 46 48 50 52 53 55 56 57 59 59 61 62 63 63 61 59 54 50 48 47 46 45 45 46
38 38 39 39 39 36 35 34 35 35 37 40 43 45 47 48 50 50 52 53 54 56 56 57 57 58 59 60 61 62 62 60 57 54 51 47 44 43 43 44 45 46 47
40 40 41 41 40 39 38 38 38 39 41 45 47 49 52 54 55 56 57 58 59 59 59 59 59 59 60 60 61 61 59 55 52 49 46 45 45 44 45 46 48 50 51
43 43 42 42 42 42 41 41 41 43 45 47 49 51 54 55 56 56 57 57 58 58 58 59 60 60 60 60 60 58 56 53 50 48 48 48 47 48 49 51 53 54 55
Wind_Direction
282 282 285 287 288 285 278 268 261 255 253 256 259 261 263 261 257 254 254 254 252 251 251 249 248 247 245 245 247 248 249 251 253 255 258 260 263 266 269 271 271 271 270
287 291 297 302 299 290 277 263 253 247 246 250 254 258 262 263 263 260 258 258 257 257 257 256 254 252 250 249 249 250 252 253 254 257 261 264 266 268 270 271 272 273 271
317 341 355 335 312 291 272 258 248 243 243 247 252 258 263 267 269 268 266 264 263 263 262 260 257 255 252 252 252 254 255 257 259 261 265 268 270 270 271 272 273 273 273
13 33 36 17 343 300 265 254 246 242 242 247 253 258 263 269 272 274 273 272 270 268 267 264 262 260 258 257 257 258 259 261 262 264 267 269 270 271 271 272 272 273 274
3 17 10 350 341 333 276 258 249 244 244 247 253 258 265 271 275 277 277 276 274 271 268 267 265 264 263 263 263 264 265 265 266 267 268 270 271 271 271 272 272 273 274
342 340 327 314 301 289 273 256 239 241 248 255 262 267 273 278 281 281 280 278 276 272 269 267 266 266 267 268 269 270 271 271 270 270 271 271 273 274 274 275 275 275 275
333 319 303 296 291 280 267 246 238 243 253 264 271 273 274 274 275 278 280 279 276 274 273 271 270 270 271 272 273 274 274 274 273 272 272 272 273 275 276 277 278 278 277
345 320 300 291 286 277 258 250 248 255 262 269 273 274 275 275 276 277 279 279 278 276 276 276 275 275 274 273 274 274 273 273 273 274 273 274 275 276 277 278 278 278 278
1 335 314 303 290 277 267 264 265 268 271 274 275 276 278 278 279 279 280 280 279 280 281 282 282 280 277 275 274 274 273 273 274 274 274 274 275 275 275 275 276 276 276
359 347 333 317 301 290 283 280 281 281 280 280 281 283 284 284 283 283 282 281 282 284 285 285 283 282 280 277 276 275 274 274 275 275 275 276 276 276 276 275 274 273 273
352 347 342 330 320 311 303 298 295 292 291 290 291 291 290 289 288 288 286 286 288 288 289 289 286 283 282 280 278 277 277 276 275 275 276 277 277 277 277 277 276 275 273
340 339 335 329 325 318 314 311 307 303 301 300 300 299 297 296 296 295 293 294 294 295 294 294 292 290 287 285 283 281 280 279 279 278 278 279 279 278 278 277 276 275 273
330 329 330 329 329 324 319 317 314 312 309 307 306 305 302 302 302 300 299 298 298 298 297 298 298 296 294 292 290 289 287 285 283 283 282 282 281 280 279 278 277 275 273
324 321 320 325 332 331 327 324 319 316 315 313 310 308 306 305 304 301 300 301 301 301 301 300 299 298 297 296 294 293 292 290 288 287 287 285 283 282 281 280 278 276 274
320 316 314 320 328 334 336 333 330 328 324 321 320 316 311 308 305 303 301 301 301 301 300 299 298 297 296 296 295 294 293 291 289 288 287 285 284 282 281 280 278 276 275
316 313 309 314 325 332 337 338 336 334 330 325 322 317 312 309 307 305 304 303 303 302 302 302 301 300 298 297 296 294 292 291 289 288 286 285 282 281 280 278 277 276 274
309 308 305 307 315 322 326 326 326 325 324 324 323 318 313 310 308 307 307 307 306 307 306 305 304 301 299 297 295 294 292 290 289 287 285 284 282 280 278 277 276 275 275
297 299 296 296 300 305 311 313 313 315 316 316 317 318 315 312 310 307 307 307 307 308 309 309 308 305 301 298 295 293 290 288 287 285 283 282 280 279 278 275 274 274 274
286 290 288 286 286 292 298 303 304 305 308 311 312 313 312 310 307 304 303 303 303 305 307 307 308 305 302 299 295 293 290 287 285 283 281 280 278 277 276 275 274 273 273
277 283 282 279 277 280 288 294 296 298 301 304 306 306 305 303 302 300 299 299 299 300 302 304 305 304 302 299 296 293 291 288 286 284 282 280 278 277 275 274 274 272 271
271 276 278 276 275 274 278 286 291 294 297 300 301 301 300 299 298 297 297 296 296 297 298 300 302 302 301 299 296 294 293 290 288 285 283 281 280 277 276 275 273 271 270
269 272 276 278 278 277 278 282 288 292 295 297 298 297 296 295 294 294 295 296 297 297 298 298 299 301 300 299 297 295 294 291 289 288 286 283 280 279 277 274 272 270 268
268 271 275 279 282 284 284 284 286 291 295 296 296 296 296 294 294 294 295 296 298 298 299 299 299 299 299 298 297 296 294 292 290 289 287 284 281 279 277 275 272 271 269
267 270 274 280 284 286 287 285 288 292 296 297 296 296 295 295 294 295 296 296 297 298 299 299 299 298 297 296 296 295 295 293 292 290 286 283 280 278 276 275 275 273 272
265 269 274 279 283 286 287 288 290 292 294 296 296 296 297 298 297 296 297 297 297 297 297 297 297 296 295 295 295 295 295 293 291 288 284 281 280 278 277 276 275 275 275
267 270 274 277 281 284 286 287 290 292 294 296 298 299 300 300 300 299 298 298 297 296 295 295 295 294 294 295 295 294 293 292 289 287 284 282 281 280 279 278 277 276 276
Height
5898 5897 5896 5896 5895 5895 5896 5896 5896 5896 5896 5896 5896 5897 5897 5897 5897 5897 5897 5898 5898 5898 5899 5899 5900 5900 5900 5901 5901 5902 5902 5903 5903 5904 5904 5904 5904 5904 5904 5904 5904 5904 5904
5896 5895 5894 5894 5893 5893 5893 5893 5894 5894 5894 5894 5894 5894 5894 5894 5894 5895 5895 5895 5895 5895 5896 5896 5896 5897 5897 5898 5898 5899 5899 5900 5900 5901 5901 5901 5900 5900 5900 5900 5900 5901 5901
5894 5893 5893 5892 5892 5891 5891 5891 5891 5892 5892 5891 5891 5891 5891 5891 5891 5891 5891 5892 5892 5892 5892 5893 5893 5893 5894 5894 5895 5895 5896 5896 5896 5897 5897 5897 5897 5896 5896 5896 5896 5896 5897
5893 5892 5891 5891 5890 5890 5890 5889 5889 5889 5889 5889 5889 5889 5888 5888 5888 5888 5888 5888 5889 5889 5889 5889 5889 5890 5890 5891 5891 5891 5892 5892 5892 5892 5892 5892 5891 5891 5891 5891 5891 5892 5891
5892 5891 5890 5890 5889 5889 5888 5888 5887 5887 5887 5887 5886 5886 5886 5886 5886 5886 5885 5885 5885 5885 5885 5886 5886 5886 5886 5886 5886 5886 5887 5887 5887 5886 5886 5886 5885 5885 5885 5885 5886 5886 5885
5891 5890 5890 5889 5888 5887 5886 5886 5885 5885 5885 5884 5884 5884 5884 5884 5884 5883 5883 5883 5883 5882 5882 5882 5882 5881 5881 5881 5881 5881 5881 5881 5881 5881 5880 5879 5879 5879 5879 5879 5879 5879 5879
5890 5889 5888 5888 5887 5886 5885 5884 5884 5883 5883 5883 5883 5883 5882 5882 5882 5881 5881 5881 5880 5880 5879 5879 5878 5878 5878 5877 5877 5876 5876 5875 5875 5874 5874 5873 5873 5872 5872 5872 5872 5872 5872
5889 5888 5887 5886 5885 5884 5884 5883 5883 5882 5882 5881 5881 5881 5880 5880 5880 5879 5879 5878 5878 5878 5877 5876 5875 5875 5874 5873 5872 5872 5871 5870 5869 5868 5867 5867 5867 5866 5866 5866 5866 5866 5865
5888 5887 5886 5885 5884 5883 5882 5882 5881 5880 5880 5879 5879 5879 5878 5877 5877 5876 5876 5875 5875 5874 5874 5873 5872 5871 5870 5869 5868 5867 5866 5865 5863 5862 5861 5860 5860 5860 5860 5859 5859 5859 5859
5887 5886 5885 5884 5883 5882 5881 5880 5879 5878 5878 5877 5876 5875 5875 5874 5873 5872 5872 5871 5870 5870 5869 5868 5867 5866 5865 5865 5864 5862 5861 5859 5858 5856 5855 5855 5854 5854 5853 5853 5852 5852 5852
5887 5886 5884 5883 5882 5880 5879 5878 5877 5876 5875 5874 5873 5872 5871 5870 5869 5868 5868 5867 5866 5865 5864 5863 5862 5861 5860 5859 5858 5857 5856 5854 5852 5850 5849 5848 5848 5847 5846 5846 5845 5844 5844
5886 5885 5883 5882 5880 5879 5877 5876 5875 5873 5872 5871 5869 5868 5867 5866 5865 5864 5863 5862 5861 5860 5859 5858 5857 5856 5854 5853 5852 5851 5850 5848 5846 5844 5843 5842 5841 5840 5839 5838 5837 5836 5836
5885 5884 5882 5880 5878 5877 5875 5873 5871 5870 5868 5867 5866 5864 5863 5862 5861 5860 5859 5858 5856 5855 5854 5853 5851 5850 5849 5847 5846 5845 5843 5841 5839 5837 5836 5835 5833 5831 5830 5829 5828 5827 5826
5883 5882 5880 5878 5877 5875 5872 5870 5868 5867 5865 5863 5862 5861 5859 5858 5857 5856 5855 5854 5852 5851 5849 5848 5846 5845 5843 5841 5840 5838 5836 5834 5832 5830 5828 5827 5824 5822 5821 5819 5818 5817 5816
5881 5880 5878 5877 5875 5872 5870 5868 5866 5864 5862 5861 5859 5858 5856 5855 5854 5852 5851 5849 5848 5846 5844 5842 5841 5839 5837 5834 5832 5830 5828 5826 5823 5821 5818 5817 5815 5813 5811 5809 5807 5806 5805
5879 5877 5876 5874 5873 5870 5868 5866 5864 5862 5860 5858 5856 5855 5853 5852 5850 5849 5847 5845 5843 5841 5838 5836 5834 5831 5829 5826 5824 5821 5819 5816 5813 5811 5807 5805 5803 5801 5799 5797 5795 5793 5792
5876 5875 5873 5871 5870 5868 5866 5864 5862 5860 5858 5856 5854 5852 5850 5848 5846 5844 5842 5840 5837 5835 5832 5830 5827 5824 5821 5818 5815 5812 5809 5806 5802 5799 5795 5791 5788 5786 5785 5783 5781 5779 5778
5873 5871 5870 5868 5867 5865 5863 5861 5859 5856 5854 5852 5850 5848 5846 5843 5841 5839 5836 5834 5831 5828 5825 5823 5820 5816 5813 5809 5806 5802 5798 5795 5791 5787 5782 5778 5774 5770 5768 5767 5766 5764 5763
5869 5867 5865 5864 5862 5860 5859 5857 5855 5852 5850 5848 5845 5843 5841 5838 5836 5833 5830 5827 5824 5821 5818 5815 5811 5808 5804 5800 5795 5791 5787 5782 5778 5773 5768 5764 5758 5755 5752 5750 5750 5748 5747
5864 5863 5861 5859 5857 5855 5853 5851 5850 5848 5845 5843 5840 5838 5836 5833 5830 5827 5824 5820 5817 5814 5810 5806 5802 5798 5793 5789 5784 5778 5773 5768 5763 5758 5753 5747 5743 5739 5736 5733 5732 5732 5730
5859 5857 5855 5853 5851 5849 5847 5845 5843 5841 5839 5837 5834 5832 5829 5826 5823 5820 5816 5813 5808 5805 5801 5796 5792 5786 5781 5776 5771 5765 5759 5753 5747 5742 5736 5730 5725 5721 5719 5717 5715 5714 5714
5853 5851 5849 5846 5843 5841 5839 5837 5836 5834 5832 5830 5827 5824 5822 5818 5815 5811 5807 5803 5799 5794 5790 5785 5780 5774 5767 5761 5756 5750 5744 5739 5730 5724 5719 5713 5708 5704 5702 5700 5700 5699 5699
5846 5844 5842 5839 5836 5833 5831 5829 5827 5825 5823 5821 5818 5815 5812 5809 5805 5801 5797 5792 5788 5782 5777 5772 5766 5760 5753 5746 5740 5734 5728 5722 5715 5709 5702 5698 5694 5691 5689 5687 5687 5686 5686
5839 5837 5834 5831 5829 5826 5823 5819 5817 5815 5814 5811 5808 5805 5801 5797 5794 5790 5785 5780 5775 5769 5763 5757 5751 5745 5739 5732 5724 5718 5711 5704 5699 5695 5689 5685 5682 5680 5678 5676 5675 5674 5673
5831 5829 5826 5824 5821 5818 5814 5811 5809 5807 5804 5801 5798 5794 5790 5786 5782 5777 5772 5767 5761 5755 5749 5743 5737 5730 5723 5717 5710 5703 5696 5689 5684 5680 5677 5673 5670 5668 5666 5664 5662 5660 5659
5823 5821 5818 5816 5813 5809 5806 5803 5801 5798 5795 5791 5787 5783 5778 5773 5769 5763 5758 5752 5747 5741 5735 5728 5722 5716 5709 5702 5695 5688 5682 5676 5671 5667 5663 5659 5657 5655 5652 5649 5647 5645 5643